Location: Newark
(42.7133°N, 87.7910°W)
Time: 10:25:42
(UTC+00:00)

Vanguard 1 - Pass Details

Date: 25 September 2019
Orbit: 653 x 3830 km, 34.3° (Epoch: 13 October)

Event Time Altitude Azimuth Distance (km) Brightness Sun altitude
Rises 10:45:53 0° 273° (W) 7,974 - -11.0°
Reaches altitude 10° 10:51:34 10° 271° (W) 6,898 13.7 -10.0°
Exits shadow 10:51:35 10° 271° (W) 6,897 13.7 -10.0°
Maximum altitude 11:12:58 58° 200° (SSW) 3,326 12.6 -6.1°
Drops below altitude 10° 11:26:13 10° 126° (SE) 4,498 14.3 -3.6°
Sets 11:29:05 0° 122° (ESE) 5,158 14.8 -3.1°
